Theta_e
319 320 320 322 322 322 324 325 325 325 326 329 334 337 337 336 337 336 336 332 331 331 330 330 328 326 324 311 311 312 310 309 306 303 301 301 301 299 300 299 299 299 297
316 317 318 320 321 322 324 323 324 325 326 329 331 336 336 335 336 336 334 331 332 332 331 330 328 325 311 310 312 311 310 309 305 301 301 302 301 301 300 300 298 296 296
315 315 315 317 319 321 322 323 323 325 326 329 333 335 335 335 335 334 332 333 332 331 330 327 325 317 310 311 311 311 309 306 303 299 298 300 302 300 298 298 297 296 296
314 314 315 315 315 318 322 323 324 326 329 331 331 331 329 330 329 331 332 332 331 330 328 326 320 310 310 311 311 310 309 304 300 298 297 296 295 296 296 297 296 296 295
314 314 314 314 314 315 319 323 324 326 330 329 331 328 328 325 328 331 331 331 330 329 326 321 313 309 310 311 310 309 307 302 298 297 296 295 294 294 294 295 295 294 294
313 313 313 313 314 314 317 323 324 327 329 329 326 325 326 325 327 331 330 329 328 326 318 313 310 309 310 310 309 307 304 299 297 296 295 294 293 293 293 293 293 292 293
312 313 313 314 314 314 314 322 325 326 327 325 325 325 326 325 328 331 330 328 326 323 316 310 307 309 309 309 307 304 300 297 296 295 294 293 292 292 291 291 291 291 291
313 314 315 314 314 315 315 321 325 325 324 323 325 327 324 325 328 330 329 326 323 316 315 308 306 308 308 307 304 300 298 296 295 295 293 292 292 291 291 291 290 290 290
313 315 315 315 315 318 317 320 324 323 322 323 325 323 323 326 329 328 326 322 316 310 307 308 307 307 306 304 301 298 296 295 294 293 292 292 291 290 290 290 289 289 290
314 314 314 315 314 317 319 322 323 322 321 322 320 318 321 327 328 327 320 316 314 309 306 307 306 306 303 301 298 296 295 294 293 292 292 291 290 289 289 289 289 289 288
314 315 314 314 315 318 321 322 322 320 319 317 315 316 321 325 325 319 311 310 308 306 306 306 305 303 301 298 296 295 295 294 292 291 291 290 289 289 288 288 287 287 287
314 314 315 315 318 321 322 322 319 317 314 311 313 318 323 320 316 309 311 307 305 305 304 304 302 300 298 296 295 294 294 293 291 291 290 289 288 288 287 287 287 287 287
313 314 315 317 319 321 320 318 314 311 310 311 316 319 316 313 310 312 308 305 305 304 303 302 300 298 296 295 294 294 293 291 291 290 289 288 288 287 287 287 287 287 287
315 314 314 315 316 317 315 313 309 307 308 310 313 313 310 311 310 304 304 305 303 303 302 300 297 295 295 294 294 293 291 291 290 289 288 288 287 287 287 286 286 286 286
315 313 313 313 313 313 310 305 303 303 310 312 311 310 308 305 303 304 303 303 302 301 300 297 295 294 294 294 292 291 290 289 288 288 288 287 287 286 286 286 286 286 286
313 310 311 310 306 303 302 300 300 304 309 311 310 305 303 302 303 304 303 302 300 299 298 295 294 294 293 292 292 291 289 287 287 287 287 287 286 286 286 286 286 286 286
310 308 307 303 300 302 299 298 303 309 309 308 305 303 302 303 303 302 301 299 299 297 295 294 293 293 292 292 290 288 287 286 287 286 287 286 286 286 286 285 286 286 285
307 304 301 299 300 299 297 299 306 307 305 304 303 301 302 303 301 301 299 298 297 295 293 293 293 292 292 291 288 287 286 286 286 286 286 286 286 286 286 285 285 285 285
304 301 298 299 298 299 299 299 301 301 302 301 301 301 302 301 300 299 297 298 296 293 293 292 292 292 289 288 286 286 285 285 285 286 286 286 286 285 286 286 285 285 284
301 300 300 300 300 299 300 303 301 303 304 301 300 300 300 300 298 297 302 295 292 292 292 292 291 290 288 286 286 285 284 284 285 285 285 285 285 286 286 285 285 284 283
303 302 301 303 302 301 301 300 298 296 298 300 300 300 299 297 299 300 293 292 291 291 291 291 289 287 286 286 285 284 283 284 285 285 285 284 285 285 285 285 284 283 283
301 300 298 298 297 297 298 297 299 300 301 300 300 299 300 302 296 293 291 291 290 290 290 289 287 286 285 284 284 283 284 285 285 284 284 284 285 285 284 283 282 283 283
301 299 299 298 298 300 304 304 301 300 300 300 300 299 297 294 292 291 290 290 290 290 288 286 286 285 285 284 284 284 284 284 284 284 284 284 284 283 282 281 282 282 281
305 304 304 304 303 302 301 302 300 300 300 299 297 296 294 292 290 290 289 290 290 287 285 285 284 284 283 283 283 282 283 283 283 283 283 283 282 281 281 281 281 281 281
300 298 299 301 300 299 299 300 299 297 297 297 296 294 291 290 289 289 289 289 287 285 285 284 283 282 282 282 282 282 282 283 283 283 282 281 281 281 281 281 281 282 282
297 298 300 300 299 299 299 297 297 296 297 296 293 290 289 289 288 289 289 288 286 285 284 283 282 282 281 281 281 282 282 282 282 281 280 280 280 280 280 281 282 283 283
Wind_Speed
28 27 28 30 32 34 32 30 27 24 22 22 24 23 26 27 27 26 28 26 25 24 21 19 15 13 10 8 7 7 9 11 11 10 8 10 10 10 10 8 8 12 16
34 34 33 32 32 33 34 32 30 27 27 24 24 23 26 32 35 37 32 29 30 26 23 20 16 13 11 8 6 6 9 11 11 9 8 3 7 8 6 9 16 11 16
33 34 34 36 34 35 34 33 31 29 29 26 23 24 32 38 42 38 36 33 30 25 23 19 16 14 11 8 6 6 8 10 11 9 4 3 3 13 10 13 11 14 14
26 29 32 33 35 37 34 33 32 30 28 28 28 35 38 41 39 37 34 33 29 25 24 20 17 14 11 8 6 7 8 8 9 11 8 6 9 4 9 7 9 15 19
19 21 23 28 32 32 36 34 31 30 29 30 32 35 33 26 33 37 34 30 30 27 23 20 17 14 11 8 6 7 8 9 9 9 9 10 9 9 10 16 11 20 19
13 16 17 23 26 30 27 34 32 32 30 33 32 31 25 32 33 38 36 33 31 29 24 20 17 14 10 7 7 7 8 9 10 10 11 10 9 9 11 15 22 25 26
14 18 20 21 22 26 32 30 31 31 31 31 28 26 28 31 29 35 35 32 31 29 24 19 17 13 9 6 6 8 9 10 11 11 11 12 13 14 15 17 23 25 29
18 14 20 24 22 25 29 30 29 30 30 28 27 26 32 28 30 34 31 32 31 28 22 21 15 11 7 6 6 8 10 11 12 13 14 14 15 15 17 18 21 27 25
13 17 22 22 21 21 26 31 30 29 29 28 29 31 29 30 31 34 33 34 31 25 22 17 12 9 6 5 7 9 10 11 13 13 15 16 17 18 19 21 21 21 26
13 17 21 16 20 20 23 28 29 29 29 28 28 29 29 30 30 32 35 31 26 22 20 15 10 6 4 5 7 9 10 12 14 15 15 17 18 19 21 21 21 21 26
16 15 17 12 14 18 22 26 28 29 29 29 31 30 30 30 31 31 30 27 22 21 16 12 8 4 4 6 7 9 12 13 14 16 17 19 19 21 21 22 22 23 24
12 13 13 5 10 16 23 25 26 32 31 30 30 30 31 31 33 32 28 23 22 18 13 9 5 3 4 6 8 10 13 14 15 17 18 19 18 22 22 22 21 24 26
11 8 8 6 10 18 23 25 26 30 32 31 30 32 33 35 34 29 25 23 19 15 11 6 3 3 5 7 10 12 14 15 16 18 18 20 21 22 22 22 23 25 27
8 7 5 9 12 18 23 23 25 27 32 32 34 37 36 33 30 28 25 21 16 12 8 4 2 4 6 9 11 13 15 16 17 18 20 22 23 23 22 25 24 25 28
8 6 8 13 18 21 23 24 25 29 35 36 37 38 36 32 30 27 22 18 14 9 5 2 3 6 8 11 13 15 16 18 19 20 21 21 22 26 23 23 26 28 31
13 8 12 18 20 23 26 28 31 38 38 39 38 36 33 30 27 23 19 14 10 6 2 2 4 8 11 13 15 17 19 20 20 21 23 23 22 21 21 23 24 25 30
15 15 17 19 22 27 30 35 39 39 39 39 36 32 30 27 23 19 15 11 7 3 1 3 7 10 13 15 17 19 20 21 20 22 22 22 20 22 23 24 25 27 31
17 17 19 22 24 29 33 38 39 38 37 35 32 28 26 23 20 16 12 9 4 1 2 6 9 12 15 16 18 20 21 20 20 20 21 22 23 23 24 28 31 35 34
16 18 20 24 28 33 35 39 40 38 34 32 28 25 23 20 17 13 10 5 1 2 4 8 11 13 14 19 18 21 22 20 20 18 20 22 24 24 24 29 34 35 36
19 21 22 25 29 34 36 38 36 31 27 26 25 23 19 16 14 10 3 3 1 3 7 11 13 15 15 17 20 21 22 21 19 20 21 20 22 22 26 30 34 38 36
22 23 24 27 31 31 30 30 29 27 26 25 23 19 16 13 8 4 5 1 3 6 10 12 13 15 16 18 21 22 21 19 20 22 24 24 22 26 29 30 32 32 29
23 22 25 26 23 23 27 28 27 25 23 20 18 16 13 8 7 4 1 2 6 9 11 12 13 12 13 17 19 22 18 18 22 25 27 29 27 30 29 28 24 24 26
24 26 28 27 26 25 21 23 23 22 20 17 15 14 11 8 4 1 2 6 8 10 11 13 14 15 17 17 16 16 17 20 22 24 27 28 28 27 25 22 22 20 21
20 21 24 24 25 22 21 20 23 20 18 18 15 11 7 5 2 1 5 7 9 10 12 14 16 18 19 17 17 23 24 23 24 27 30 29 24 20 21 21 21 21 21
23 23 23 25 26 24 22 21 21 19 17 14 10 8 5 2 1 4 6 8 11 12 14 16 18 19 20 19 22 23 24 24 26 28 30 23 21 23 22 22 22 23 25
25 25 24 28 28 25 23 22 19 15 12 10 8 6 4 2 3 6 9 11 11 14 16 16 17 19 20 21 24 22 22 23 24 24 20 20 21 22 23 24 26 27 29
Wind_Direction
243 240 237 235 233 230 228 225 221 221 214 207 203 202 206 211 207 211 196 209 206 213 211 213 214 229 225 224 252 290 312 322 329 336 322 315 319 305 286 275 274 289 296
243 240 237 235 232 229 227 224 221 217 218 214 210 200 203 207 207 202 204 201 210 210 209 213 219 225 212 223 255 293 311 320 334 345 352 330 284 315 297 262 281 282 290
249 246 242 237 233 230 227 224 218 213 215 207 196 185 201 209 211 212 216 206 213 214 205 209 217 216 210 227 258 293 310 323 330 344 353 329 294 291 286 272 280 295 289
249 249 246 241 236 231 226 220 216 211 207 201 196 201 214 214 216 212 204 207 206 200 200 210 212 206 213 233 261 290 309 323 322 333 327 301 278 295 298 256 296 287 291
248 252 250 246 242 236 226 219 213 205 201 204 198 212 209 212 212 206 197 195 198 195 200 205 206 205 215 237 266 290 311 319 318 317 314 315 303 285 269 296 293 288 293
247 250 253 253 245 240 232 215 209 201 196 197 209 210 194 210 207 201 195 196 193 193 192 200 202 204 218 240 272 297 314 318 316 312 312 308 294 270 278 287 294 298 307
276 265 259 249 241 233 226 214 205 199 195 202 198 195 195 213 206 202 197 196 194 192 193 194 197 202 221 246 283 307 316 315 315 312 307 303 298 291 291 292 294 294 299
273 293 279 245 239 231 220 211 205 197 196 194 188 180 201 204 199 197 195 196 191 189 193 194 191 205 225 260 295 311 313 313 311 309 306 303 301 296 294 293 295 301 297
280 301 310 260 234 219 218 206 200 193 190 183 172 188 197 196 192 188 193 189 188 184 185 189 193 209 235 280 302 310 312 312 309 306 306 306 304 300 298 295 294 292 297
282 305 326 269 230 222 206 203 195 185 177 171 172 185 189 188 190 189 185 183 185 186 183 184 196 210 251 291 303 308 309 308 306 305 303 301 300 296 295 296 294 288 285
283 303 320 283 225 215 189 195 184 171 165 165 176 183 181 182 186 180 176 176 177 180 177 184 194 218 273 298 303 305 307 309 305 302 302 301 300 300 299 297 293 289 288
287 303 304 269 218 195 173 178 171 162 161 169 177 175 174 174 173 170 176 171 172 173 178 180 195 244 288 299 303 309 310 306 302 301 299 299 299 297 301 300 293 290 291
288 300 291 167 192 176 163 163 161 156 166 170 170 165 166 167 168 173 171 172 170 172 173 183 216 275 294 302 307 308 305 303 302 301 299 298 299 300 298 293 295 297 297
290 289 218 155 175 161 155 155 156 158 161 162 160 161 163 167 166 165 165 169 167 170 174 192 255 293 303 308 308 311 311 308 304 301 300 300 300 300 296 293 297 299 298
291 246 162 166 157 151 152 155 151 154 158 158 159 161 161 162 161 162 162 163 166 167 171 223 295 305 308 310 315 313 310 307 303 301 302 300 296 296 300 299 303 302 301
280 183 162 150 149 154 158 160 155 154 158 160 160 158 158 157 158 159 161 160 160 161 175 289 306 307 310 316 316 314 313 312 307 302 301 300 301 299 295 298 298 299 301
181 170 164 153 161 166 166 159 156 158 159 159 155 155 154 153 155 156 156 154 156 161 256 307 310 313 314 319 317 317 316 314 310 305 304 301 299 299 301 300 302 297 300
151 156 154 155 163 164 160 158 156 157 154 151 150 151 151 152 152 152 152 152 148 179 308 310 315 317 315 319 317 317 319 315 309 303 301 301 304 302 305 305 303 305 306
139 142 145 153 158 159 158 152 149 148 147 146 147 151 152 152 151 150 146 136 188 263 307 316 317 317 318 316 318 321 320 315 311 304 301 304 303 305 305 306 306 308 305
132 137 142 152 154 152 150 146 143 146 146 147 149 148 147 148 146 141 150 182 231 313 316 318 319 316 314 316 321 319 322 317 313 305 305 305 304 305 307 307 308 306 306
117 122 125 132 136 138 142 136 139 143 146 146 147 145 142 140 141 167 163 190 315 319 323 322 321 318 315 316 319 322 321 317 312 315 310 307 306 308 309 306 301 302 308
113 118 122 125 131 136 147 141 142 143 144 142 141 139 142 159 162 161 155 324 327 326 322 319 321 317 312 313 316 319 323 323 312 309 308 310 314 310 307 306 308 307 306
139 141 139 139 142 147 149 148 141 141 140 143 149 158 162 157 149 138 337 329 324 323 322 320 323 321 317 319 315 313 314 312 312 308 309 308 309 309 312 315 313 312 315
134 137 140 144 146 149 150 147 141 144 154 158 159 158 155 146 145 320 321 317 322 324 325 325 320 319 317 315 306 312 315 318 314 313 313 310 313 310 312 316 319 319 319
143 145 152 150 146 147 146 144 149 155 157 158 158 152 150 162 283 307 322 322 321 329 326 321 320 319 317 316 315 317 316 320 315 312 310 322 314 315 320 319 322 326 327
151 158 151 146 144 149 150 150 154 158 159 158 155 157 169 224 311 327 327 327 325 324 323 321 323 323 321 318 317 318 319 314 315 313 320 311 314 316 318 323 327 332 333